When you browse on this site, cookies collect data to enhance your experience and personalize the content and advertising you see.
Visit our Privacy Policy to learn more. By continuing to use the site, you agree to this use of cookies and data.
  • In Hungary
  • List of Countries
  • For 7 days
  • Water Temperature
  • Satellite Maps
  • Weather Map
  • News
  • Weather Widgets
  • user-avatar
    Login

    Hourly Weather Turlock

    Today, 27 June, Thursday

    Time Temperature Precipitation Wind Pressure Humidity
    00:00 +14°C° 0 mm 3 mps 759 mmHg 69%
    01:00 +13°C° 0 mm 3 mps 760 mmHg 74%
    02:00 +12°C° 0 mm 3 mps 760 mmHg 77%
    03:00 +13°C° 0 mm 2 mps 760 mmHg 79%
    04:00 +12°C° 0 mm 2 mps 760 mmHg 82%
    05:00 +14°C° 0 mm 2 mps 760 mmHg 74%
    06:00 +16°C° 0 mm 2 mps 760 mmHg 65%
    07:00 +17°C° 0 mm 2 mps 760 mmHg 57%
    08:00 +20°C° 0 mm 3 mps 760 mmHg 47%
    09:00 +22°C° 0 mm 3 mps 760 mmHg 37%
    10:00 +26°C° 0 mm 3 mps 760 mmHg 27%
    11:00 +27°C° 0 mm 3 mps 760 mmHg 24%
    12:00 +29°C° 0 mm 3 mps 760 mmHg 20%
    13:00 +31°C° 0 mm 3 mps 759 mmHg 17%
    14:00 +32°C° 0 mm 4 mps 759 mmHg 17%
    15:00 +32°C° 0 mm 4 mps 759 mmHg 17%
    16:00 +32°C° 0 mm 5 mps 758 mmHg 17%
    17:00 +29°C° 0 mm 5 mps 759 mmHg 21%
    18:00 +27°C° 0 mm 5 mps 759 mmHg 25%
    19:00 +23°C° 0 mm 5 mps 759 mmHg 29%
    20:00 +21°C° 0 mm 4 mps 759 mmHg 35%
    21:00 +19°C° 0 mm 3 mps 759 mmHg 41%
    22:00 +17°C° 0 mm 3 mps 759 mmHg 47%
    23:00 +17°C° 0 mm 3 mps 759 mmHg 50%

    Tomorrow, 28 June, Friday

    Time Temperature Precipitation Wind Pressure Humidity
    00:00 +16°C° 0 mm 2 mps 759 mmHg 52%
    01:00 +15°C° 0 mm 2 mps 759 mmHg 55%
    02:00 +15°C° 0 mm 2 mps 759 mmHg 56%
    03:00 +15°C° 0 mm 2 mps 759 mmHg 57%
    04:00 +15°C° 0 mm 1 mps 759 mmHg 58%
    05:00 +16°C° 0 mm 1 mps 759 mmHg 54%
    06:00 +17°C° 0 mm 2 mps 759 mmHg 51%
    07:00 +19°C° 0 mm 2 mps 759 mmHg 48%
    08:00 +21°C° 0 mm 2 mps 759 mmHg 41%
    09:00 +24°C° 0 mm 2 mps 759 mmHg 34%
    10:00 +26°C° 0 mm 2 mps 759 mmHg 27%
    11:00 +28°C° 0 mm 2 mps 759 mmHg 24%
    12:00 +29°C° 0 mm 2 mps 759 mmHg 20%
    13:00 +31°C° 0 mm 2 mps 759 mmHg 16%
    14:00 +31°C° 0 mm 2 mps 759 mmHg 16%
    15:00 +33°C° 0 mm 3 mps 758 mmHg 15%
    16:00 +33°C° 0 mm 3 mps 758 mmHg 14%
    17:00 +30°C° 0 mm 3 mps 758 mmHg 17%
    18:00 +28°C° 0 mm 4 mps 758 mmHg 20%
    19:00 +26°C° 0 mm 4 mps 758 mmHg 23%
    20:00 +24°C° 0 mm 3 mps 759 mmHg 28%
    21:00 +20°C° 0 mm 3 mps 759 mmHg 34%
    22:00 +17°C° 0 mm 2 mps 759 mmHg 39%
    23:00 +17°C° 0 mm 2 mps 759 mmHg 42%

    Day after tomorrow, 29 June, Saturday

    Time Temperature Precipitation Wind Pressure Humidity
    00:00 +16°C° 0 mm 2 mps 759 mmHg 46%
    01:00 +15°C° 0 mm 2 mps 759 mmHg 49%
    02:00 +14°C° 0 mm 2 mps 759 mmHg 52%
    03:00 +14°C° 0 mm 2 mps 759 mmHg 54%
    04:00 +13°C° 0 mm 2 mps 759 mmHg 57%
    05:00 +14°C° 0 mm 3 mps 759 mmHg 53%
    06:00 +17°C° 0 mm 3 mps 759 mmHg 48%
    07:00 +19°C° 0 mm 3 mps 759 mmHg 44%
    08:00 +22°C° 0 mm 3 mps 759 mmHg 37%
    09:00 +26°C° 0 mm 3 mps 759 mmHg 29%
    10:00 +29°C° 0 mm 2 mps 759 mmHg 22%
    11:00 +31°C° 0 mm 2 mps 759 mmHg 19%
    12:00 +34°C° 0 mm 2 mps 758 mmHg 16%
    13:00 +35°C° 0 mm 2 mps 758 mmHg 13%
    14:00 +36°C° 0 mm 2 mps 758 mmHg 12%
    15:00 +36°C° 0 mm 3 mps 757 mmHg 11%
    16:00 +37°C° 0 mm 3 mps 757 mmHg 10%
    17:00 +34°C° 0 mm 4 mps 757 mmHg 14%
    18:00 +30°C° 0 mm 4 mps 758 mmHg 18%
    19:00 +28°C° 0 mm 4 mps 758 mmHg 21%
    20:00 +25°C° 0 mm 4 mps 758 mmHg 27%
    21:00 +21°C° 0 mm 3 mps 758 mmHg 32%
    22:00 +19°C° 0 mm 2 mps 759 mmHg 37%
    23:00 +18°C° 0 mm 2 mps 759 mmHg 38%

    30 June, Sunday

    Time Temperature Precipitation Wind Pressure Humidity
    00:00 +17°C° 0 mm 2 mps 759 mmHg 40%
    01:00 +17°C° 0 mm 2 mps 759 mmHg 41%
    02:00 +16°C° 0 mm 2 mps 759 mmHg 42%
    03:00 +16°C° 0 mm 2 mps 758 mmHg 43%
    04:00 +15°C° 0 mm 2 mps 758 mmHg 44%
    05:00 +17°C° 0 mm 2 mps 759 mmHg 41%
    06:00 +19°C° 0 mm 3 mps 759 mmHg 38%
    07:00 +20°C° 0 mm 3 mps 759 mmHg 35%
    08:00 +24°C° 0 mm 3 mps 759 mmHg 30%
    09:00 +27°C° 0 mm 3 mps 758 mmHg 25%
    10:00 +30°C° 0 mm 3 mps 758 mmHg 19%
    11:00 +33°C° 0 mm 3 mps 758 mmHg 17%
    12:00 +34°C° 0 mm 3 mps 758 mmHg 15%
    13:00 +36°C° 0 mm 3 mps 758 mmHg 13%
    14:00 +36°C° 0 mm 4 mps 758 mmHg 13%
    15:00 +37°C° 0 mm 4 mps 757 mmHg 13%
    16:00 +37°C° 0 mm 5 mps 757 mmHg 12%
    17:00 +34°C° 0 mm 5 mps 757 mmHg 16%
    18:00 +30°C° 0 mm 5 mps 758 mmHg 20%
    19:00 +27°C° 0 mm 5 mps 758 mmHg 24%
    20:00 +23°C° 0 mm 4 mps 758 mmHg 31%
    21:00 +21°C° 0 mm 3 mps 759 mmHg 39%
    22:00 +18°C° 0 mm 3 mps 759 mmHg 46%
    23:00 +17°C° 0 mm 2 mps 759 mmHg 50%

    1 July, Monday

    Time Temperature Precipitation Wind Pressure Humidity
    00:00 +16°C° 0 mm 2 mps 759 mmHg 55%
    01:00 +15°C° 0 mm 2 mps 759 mmHg 59%
    02:00 +15°C° 0 mm 2 mps 759 mmHg 61%
    03:00 +14°C° 0 mm 2 mps 759 mmHg 63%
    04:00 +14°C° 0 mm 2 mps 759 mmHg 65%
    05:00 +16°C° 0 mm 2 mps 759 mmHg 59%
    06:00 +17°C° 0 mm 3 mps 759 mmHg 54%
    07:00 +19°C° 0 mm 3 mps 759 mmHg 49%
    08:00 +22°C° 0 mm 3 mps 759 mmHg 42%
    09:00 +26°C° 0 mm 3 mps 759 mmHg 34%
    10:00 +29°C° 0 mm 3 mps 759 mmHg 27%
    11:00 +31°C° 0 mm 3 mps 758 mmHg 23%
    12:00 +34°C° 0 mm 4 mps 758 mmHg 19%
    13:00 +36°C° 0 mm 4 mps 758 mmHg 15%
    14:00 +36°C° 0 mm 4 mps 757 mmHg 15%
    15:00 +37°C° 0 mm 4 mps 757 mmHg 14%
    16:00 +37°C° 0 mm 5 mps 757 mmHg 14%
    17:00 +35°C° 0 mm 5 mps 757 mmHg 17%
    18:00 +32°C° 0 mm 5 mps 757 mmHg 19%
    19:00 +29°C° 0 mm 5 mps 757 mmHg 22%
    20:00 +26°C° 0 mm 4 mps 757 mmHg 29%
    21:00 +22°C° 0 mm 3 mps 758 mmHg 37%
    22:00 +19°C° 0 mm 2 mps 758 mmHg 44%
    23:00 +18°C° 0 mm 2 mps 758 mmHg 48%

    2 July, Tuesday

    Time Temperature Precipitation Wind Pressure Humidity
    00:00 +17°C° 0 mm 2 mps 757 mmHg 51%
    01:00 +16°C° 0 mm 2 mps 757 mmHg 55%
    02:00 +15°C° 0 mm 2 mps 757 mmHg 58%
    03:00 +15°C° 0 mm 2 mps 757 mmHg 62%
    04:00 +14°C° 0 mm 2 mps 757 mmHg 65%
    05:00 +16°C° 0 mm 2 mps 757 mmHg 59%
    06:00 +17°C° 0 mm 2 mps 757 mmHg 53%
    07:00 +19°C° 0 mm 3 mps 757 mmHg 47%
    08:00 +23°C° 0 mm 2 mps 757 mmHg 39%
    09:00 +26°C° 0 mm 2 mps 757 mmHg 31%
    10:00 +29°C° 0 mm 2 mps 757 mmHg 22%
    11:00 +31°C° 0 mm 2 mps 757 mmHg 19%
    12:00 +34°C° 0 mm 2 mps 756 mmHg 15%
    13:00 +36°C° 0 mm 2 mps 756 mmHg 12%
    14:00 +36°C° 0 mm 3 mps 755 mmHg 12%
    15:00 +37°C° 0 mm 3 mps 755 mmHg 13%
    16:00 +37°C° 0 mm 4 mps 755 mmHg 13%
    17:00 +34°C° 0 mm 4 mps 755 mmHg 18%
    18:00 +30°C° 0 mm 4 mps 755 mmHg 23%
    19:00 +27°C° 0 mm 4 mps 755 mmHg 29%
    20:00 +24°C° 0 mm 3 mps 755 mmHg 38%
    21:00 +20°C° 0 mm 3 mps 756 mmHg 46%
    22:00 +17°C° 0 mm 2 mps 756 mmHg 55%
    23:00 +16°C° 0 mm 2 mps 756 mmHg 60%
    Show more